Regional Weather Roundup
Issued by NWS

Home | Current Version | Previous Version | Text Only | Print | Product List | Glossary On
Versions: 1 2 3 4 5 6 7 8 9 10 11 12 13 14 15 16 17 18 19 20 21 22 23 24 25 26 27 28 29 30 31 32 33 34 35 36 37 38 39 40 41 42 43 44 45 46 47 48 49 50
000
ASUS45 KBOI 271610
RWRID

IDAHO REGIONAL WEATHER ROUNDUP
NATIONAL WEATHER SERVICE BOISE ID
1000 AM MDT SAT MAY 27 2017

NOTE: "FAIR" INDICATES FEW OR NO CLOUDS BELOW 12000 FEET
WITH NO SIGNIFICANT WEATHER AND/OR OBSTRUCTIONS TO VISIBILITY

IDZ012-014-271700-
SOUTHWEST IDAHO


CITY           SKY/WX    TMP DP  RH WIND       PRES   REMARKS
BOISE          SUNNY     62  41  46 VRB3      30.19R
CALDWELL       SUNNY     61  44  53 CALM      30.19R
MOUNTAIN HOME  SUNNY     59  46  62 E8        30.19R
$$

IDZ016-017-271700-
SOUTHCENTRAL IDAHO


CITY           SKY/WX    TMP DP  RH WIND       PRES   REMARKS
BURLEY         SUNNY     54  43  66 CALM      30.22R
JEROME         SUNNY     57  43  59 E7        30.22R
TWIN FALLS     SUNNY     57  46  66 N6        30.22R
$$

IDZ019>023-271700-
SOUTHEAST IDAHO


CITY           SKY/WX    TMP DP  RH WIND       PRES   REMARKS
IDAHO FALLS    MOSUNNY   50  42  74 VRB5      30.26R
POCATELLO      PTSUNNY   50  45  83 CALM      30.25S
REXBURG        PTSUNNY   47  41  80 CALM      30.25R
$$

IDZ006-010-011-018-031-032-271700-
CENTRAL IDAHO MOUNTAINS


CITY           SKY/WX    TMP DP  RH WIND       PRES   REMARKS
MCCALL         SUNNY     52  37  56 CALM      30.22R
HAILEY         SUNNY     52  37  58 CALM      30.24R
STANLEY          N/A     43  35  73 N5        30.29S
SALMON         SUNNY     54  39  58 CALM      30.21S
CHALLIS        SUNNY     54  35  48 E3        30.24S
$$

IDZ002-004-006-007-026-271700-
NORTHERN IDAHO


CITY           SKY/WX    TMP DP  RH WIND       PRES   REMARKS
LEWISTON       SUNNY     63  49  60 NE6       30.15R
LOWELL           N/A     55  46  71 CALM      30.20F
COEUR D`ALENE  SUNNY     64  44  48 S9        30.15R
MULLAN PASS    SUNNY     52  33  48 NW8       30.23R
$$



USA.gov is the U.S. government's official web portal to all federal, state and local government web resources and services.